Home > Weather > Richmond Hill > Past weeks

Flag for Canada Past Weather in Richmond Hill, Ontario, Canada — Yesterday and Last 2 Weeks

Now
64 °F

Passing clouds.


Feels Like: 64 °F
Forecast: 49 / 78 °F
Wind: No wind

Location: Toronto Buttonville

Current Time: Jun 30, 2016 at 8:28:24 AM

Latest Report: Jun 30, 2016 at 8:00 AM


Visibility: 15 mi

Pressure: 30.04 "Hg

Humidity: 49%

Dew Point: 45 °F

Location of Richmond HillLocation

Past Weather in Richmond Hill — Graph

°F

Richmond Hill Temperature Yesterday

Maximum temperature yesterday: 75 °F (at 3:00 PM)
Minimum temperature yesterday: 57 °F (at 6:00 AM)
Average temperature yesterday: 67 °F

High & Low Weather Summary for the Past Weeks

 TemperatureHumidityPressure
High91 °F (Jun 20, 4:00 PM)94% (Jun 27, 1:00 AM)30.27 "Hg (Jun 27, 1:00 AM)
Low54 °F (Jun 23, 2:00 AM)24% (Jun 18, 1:00 PM)29.74 "Hg (Jun 20, 7:00 PM)
Average71 °F51%29.98 "Hg
* Reported Jun 15 7:00 AM — Jun 30 7:00 AM, Richmond Hill, Weather by CustomWeather, © 2016

Note: Actual official high and low records may vary slightly from our data, if they occured in-between our weather recording intervals... More about our weather records

Advertising

Richmond Hill Weather History for the Previous 24 Hours

Scroll right to see more
 ConditionsComfort  
Time TempWeatherWind HumidityBarometerVisibility
7:00 AM
Thu, Jun 30
59 °FPassing clouds.No wind63%30.03 "Hg15 mi
6:00 AM55 °FPassing clouds.No wind67%30.02 "Hg15 mi
5:00 AM55 °FClear.2 mph67%30.02 "Hg15 mi
4:00 AM54 °FClear.No wind72%30.01 "Hg15 mi
3:00 AM57 °FClear.No wind63%30.02 "Hg15 mi
2:00 AM59 °FClear.No wind63%30.01 "Hg15 mi
1:00 AM59 °FClear.2 mph55%30.01 "Hg15 mi
12:00 AM61 °FClear.6 mph52%30.01 "Hg15 mi
11:00 PM
Wed, Jun 29
63 °FClear.5 mph45%30.01 "Hg15 mi
10:00 PM64 °FSunny.6 mph46%30.00 "Hg15 mi
9:00 PM68 °FSunny.7 mph43%29.99 "Hg15 mi
8:00 PM72 °FPassing clouds.12 mph38%29.98 "Hg15 mi
7:00 PM75 °FPassing clouds.10 mph36%29.98 "Hg15 mi
6:00 PM75 °FPassing clouds.12 mph34%29.98 "Hg15 mi
5:00 PM75 °FPassing clouds.14 mph31%29.97 "Hg15 mi
4:00 PM75 °FPassing clouds.10 mph34%29.98 "Hg15 mi
3:00 PM75 °FPassing clouds.12 mph39%29.98 "Hg15 mi
2:00 PM73 °FPassing clouds.8 mph44%29.98 "Hg15 mi
1:00 PM73 °FPassing clouds.13 mph38%29.99 "Hg15 mi
12:00 PM73 °FScattered clouds.17 mph41%30.00 "Hg15 mi
11:00 AM70 °FScattered clouds.15 mph53%29.98 "Hg15 mi
10:00 AM68 °FScattered clouds.10 mph64%30.00 "Hg15 mi
9:00 AM66 °FPartly sunny.12 mph68%30.01 "Hg15 mi
8:00 AM64 °FPassing clouds.9 mph73%29.98 "Hg15 mi
Weather by CustomWeather, © 2016

See weather overviewHow to use our weather pages